When you browse on this site, cookies collect data to enhance your experience and personalize the content and advertising you see.
Visit our Privacy Policy to learn more. By continuing to use the site, you agree to this use of cookies and data.
  • In Hungary
  • List of Countries
  • For 7 days
  • Water Temperature
  • Satellite Maps
  • Weather Map
  • News
  • Weather Widgets
  • user-avatar
    Login

    Hourly Weather Binche

    Today, 22 January, Tuesday

    Time Temperature Precipitation Wind Pressure Humidity
    00:00 -5°C° 0 mm 4 mps 751 mmHg 56%
    01:00 -5°C° 0 mm 5 mps 750 mmHg 56%
    02:00 -5°C° 0 mm 5 mps 749 mmHg 56%
    03:00 -5°C° 0 mm 6 mps 748 mmHg 57%
    04:00 -5°C° 0 mm 6 mps 747 mmHg 56%
    05:00 -6°C° 0 mm 7 mps 746 mmHg 56%
    06:00 -7°C° 0 mm 7 mps 746 mmHg 55%
    07:00 -7°C° 0 mm 7 mps 745 mmHg 54%
    08:00 -6°C° 0 mm 7 mps 744 mmHg 53%
    09:00 -6°C° 0 mm 8 mps 744 mmHg 52%
    10:00 -6°C° 0.4 mm 7 mps 743 mmHg 63%
    11:00 -6°C° 0.4 mm 7 mps 743 mmHg 73%
    12:00 -6°C° 0.4 mm 7 mps 742 mmHg 84%
    13:00 -5°C° 0.5 mm 6 mps 742 mmHg 86%
    14:00 -5°C° 0.5 mm 6 mps 741 mmHg 87%
    15:00 -4°C° 0.5 mm 5 mps 741 mmHg 89%
    16:00 -4°C° 0 mm 5 mps 740 mmHg 91%
    17:00 -3°C° 0 mm 4 mps 740 mmHg 92%
    18:00 -3°C° 0 mm 4 mps 739 mmHg 93%
    19:00 -3°C° 0 mm 4 mps 739 mmHg 93%
    20:00 -2°C° 0 mm 3 mps 738 mmHg 93%
    21:00 -2°C° 0 mm 3 mps 738 mmHg 94%
    22:00 -2°C° 0 mm 3 mps 738 mmHg 94%
    23:00 -4°C° 0 mm 3 mps 737 mmHg 94%

    Tomorrow, 23 January, Wednesday

    Time Temperature Precipitation Wind Pressure Humidity
    00:00 -4°C° 0 mm 3 mps 736 mmHg 94%
    01:00 -4°C° 0 mm 3 mps 736 mmHg 94%
    02:00 -3°C° 0 mm 4 mps 735 mmHg 93%
    03:00 -3°C° 0 mm 4 mps 735 mmHg 92%
    04:00 -3°C° 0.3 mm 4 mps 735 mmHg 92%
    05:00 -3°C° 0.3 mm 4 mps 735 mmHg 92%
    06:00 -3°C° 0.3 mm 4 mps 735 mmHg 91%
    07:00 -3°C° 0.1 mm 4 mps 735 mmHg 90%
    08:00 -3°C° 0.1 mm 4 mps 736 mmHg 89%
    09:00 -3°C° 0.1 mm 4 mps 736 mmHg 88%
    10:00 -2°C° 0 mm 4 mps 737 mmHg 87%
    11:00 -2°C° 0 mm 4 mps 737 mmHg 86%
    12:00 -1°C° 0 mm 4 mps 738 mmHg 84%
    13:00 -2°C° 0 mm 4 mps 738 mmHg 85%
    14:00 -2°C° 0 mm 4 mps 739 mmHg 86%
    15:00 -2°C° 0 mm 4 mps 740 mmHg 87%
    16:00 -2°C° 0 mm 4 mps 740 mmHg 88%
    17:00 -2°C° 0 mm 3 mps 741 mmHg 90%
    18:00 -2°C° 0 mm 3 mps 742 mmHg 91%
    19:00 -2°C° 0 mm 3 mps 742 mmHg 92%
    20:00 -2°C° 0 mm 3 mps 743 mmHg 93%
    21:00 -2°C° 0 mm 3 mps 743 mmHg 94%
    22:00 -3°C° 0 mm 2 mps 744 mmHg 94%
    23:00 -3°C° 0 mm 2 mps 744 mmHg 95%

    Day after tomorrow, 24 January, Thursday

    Time Temperature Precipitation Wind Pressure Humidity
    00:00 -1°C° 0 mm 1 mps 744 mmHg 95%
    01:00 -2°C° 0 mm 1 mps 745 mmHg 95%
    02:00 -2°C° 0 mm 1 mps 745 mmHg 95%
    03:00 -2°C° 0 mm 1 mps 745 mmHg 95%
    04:00 -2°C° 0 mm 1 mps 745 mmHg 95%
    05:00 -2°C° 0 mm 1 mps 746 mmHg 96%
    06:00 -2°C° 0 mm 1 mps 746 mmHg 96%
    07:00 -1°C° 0 mm 1 mps 746 mmHg 95%
    08:00 -1°C° 0 mm 1 mps 747 mmHg 94%
    09:00 0°C° 0 mm 1 mps 747 mmHg 92%
    10:00 -1°C° 0 mm 2 mps 747 mmHg 91%
    11:00 +1°C° 0 mm 2 mps 747 mmHg 89%
    12:00 +1°C° 0 mm 3 mps 747 mmHg 88%
    13:00 +2°C° 0 mm 2 mps 747 mmHg 90%
    14:00 +1°C° 0 mm 2 mps 747 mmHg 93%
    15:00 +1°C° 0 mm 2 mps 747 mmHg 95%
    16:00 +1°C° 0 mm 2 mps 748 mmHg 96%
    17:00 -1°C° 0 mm 2 mps 748 mmHg 96%
    18:00 -2°C° 0 mm 2 mps 748 mmHg 96%
    19:00 -2°C° 0 mm 2 mps 749 mmHg 96%
    20:00 -3°C° 0 mm 2 mps 749 mmHg 95%
    21:00 -3°C° 0 mm 2 mps 749 mmHg 94%
    22:00 -3°C° 0 mm 2 mps 749 mmHg 93%
    23:00 -4°C° 0 mm 2 mps 749 mmHg 92%

    25 January, Friday

    Time Temperature Precipitation Wind Pressure Humidity
    00:00 -4°C° 0 mm 2 mps 749 mmHg 91%
    01:00 -4°C° 0 mm 2 mps 749 mmHg 90%
    02:00 -4°C° 0 mm 2 mps 749 mmHg 90%
    03:00 -5°C° 0 mm 3 mps 748 mmHg 89%
    04:00 -4°C° 0.2 mm 3 mps 749 mmHg 90%
    05:00 -4°C° 0.2 mm 3 mps 749 mmHg 90%
    06:00 -4°C° 0.2 mm 3 mps 749 mmHg 91%
    07:00 -2°C° 0.5 mm 3 mps 749 mmHg 92%
    08:00 -2°C° 0.5 mm 2 mps 749 mmHg 94%
    09:00 -2°C° 0.5 mm 2 mps 749 mmHg 95%
    10:00 -1°C° 0 mm 2 mps 750 mmHg 94%
    11:00 -1°C° 0 mm 2 mps 750 mmHg 93%
    12:00 -1°C° 0 mm 2 mps 750 mmHg 91%
    13:00 -1°C° 0 mm 2 mps 750 mmHg 92%
    14:00 -1°C° 0 mm 2 mps 750 mmHg 92%
    15:00 -1°C° 0 mm 2 mps 751 mmHg 93%
    16:00 -2°C° 0 mm 2 mps 751 mmHg 94%
    17:00 -2°C° 0 mm 2 mps 751 mmHg 95%
    18:00 -3°C° 0 mm 2 mps 752 mmHg 96%
    19:00 -4°C° 0 mm 2 mps 752 mmHg 96%
    20:00 -4°C° 0 mm 2 mps 752 mmHg 95%
    21:00 -5°C° 0 mm 2 mps 752 mmHg 95%
    22:00 -3°C° 0 mm 1 mps 752 mmHg 93%
    23:00 -3°C° 0 mm 1 mps 752 mmHg 92%

    26 January, Saturday

    Time Temperature Precipitation Wind Pressure Humidity
    00:00 -3°C° 0 mm 1 mps 752 mmHg 90%
    01:00 -5°C° 0 mm 2 mps 752 mmHg 90%
    02:00 -5°C° 0 mm 2 mps 751 mmHg 89%
    03:00 -5°C° 0 mm 2 mps 751 mmHg 88%
    04:00 -5°C° 0 mm 2 mps 751 mmHg 89%
    05:00 -6°C° 0 mm 3 mps 750 mmHg 89%
    06:00 -6°C° 0 mm 3 mps 750 mmHg 90%
    07:00 -7°C° 0 mm 4 mps 750 mmHg 90%
    08:00 -5°C° 0 mm 4 mps 750 mmHg 90%
    09:00 -5°C° 0 mm 4 mps 750 mmHg 89%
    10:00 -5°C° 0 mm 5 mps 749 mmHg 88%
    11:00 -4°C° 0 mm 5 mps 749 mmHg 86%
    12:00 -4°C° 0 mm 5 mps 748 mmHg 84%
    13:00 -2°C° 0 mm 5 mps 747 mmHg 84%
    14:00 -2°C° 0 mm 5 mps 747 mmHg 83%
    15:00 -2°C° 0 mm 5 mps 746 mmHg 82%
    16:00 -2°C° 0.2 mm 5 mps 746 mmHg 85%
    17:00 -4°C° 0.2 mm 5 mps 746 mmHg 87%
    18:00 -4°C° 0.2 mm 5 mps 746 mmHg 89%
    19:00 -4°C° 0.6 mm 5 mps 745 mmHg 91%
    20:00 -3°C° 0.6 mm 4 mps 745 mmHg 92%
    21:00 -3°C° 0.6 mm 4 mps 745 mmHg 94%
    22:00 -3°C° 0.3 mm 4 mps 745 mmHg 94%
    23:00 -2°C° 0.3 mm 3 mps 745 mmHg 94%

    27 January, Sunday

    Time Temperature Precipitation Wind Pressure Humidity
    00:00 -2°C° 0.3 mm 3 mps 744 mmHg 95%
    01:00 -2°C° 0.1 mm 2 mps 744 mmHg 95%
    02:00 -2°C° 0.1 mm 2 mps 744 mmHg 96%
    03:00 -2°C° 0.1 mm 2 mps 744 mmHg 96%
    04:00 -2°C° 0.1 mm 2 mps 744 mmHg 97%
    05:00 -1°C° 0.1 mm 2 mps 743 mmHg 97%
    06:00 -1°C° 0.1 mm 2 mps 743 mmHg 97%
    07:00 -1°C° 0 mm 2 mps 743 mmHg 97%
    08:00 -1°C° 0 mm 2 mps 743 mmHg 96%
    09:00 +1°C° 0 mm 1 mps 743 mmHg 95%
    10:00 -1°C° 0 mm 2 mps 743 mmHg 96%
    11:00 +1°C° 0 mm 2 mps 743 mmHg 97%
    12:00 +1°C° 0 mm 2 mps 743 mmHg 99%
    13:00 +1°C° 0 mm 2 mps 742 mmHg 97%
    14:00 +1°C° 0 mm 2 mps 742 mmHg 96%
    15:00 +1°C° 0 mm 2 mps 742 mmHg 95%
    16:00 -1°C° 0 mm 3 mps 742 mmHg 94%
    17:00 -2°C° 0 mm 3 mps 742 mmHg 94%
    18:00 -2°C° 0 mm 3 mps 741 mmHg 94%
    19:00 -2°C° 0.2 mm 3 mps 742 mmHg 94%
    20:00 -3°C° 0.2 mm 4 mps 742 mmHg 94%
    21:00 -3°C° 0.2 mm 4 mps 742 mmHg 94%
    22:00 -2°C° 0.6 mm 4 mps 742 mmHg 95%
    23:00 -2°C° 0.6 mm 4 mps 742 mmHg 95%
    Show more